Topeka, KS

2:06 AM CDT on August 17, 2017 (GMT -0500)
Billard Municipal

Weather History for KTOP - February, 2014

Change the Weather History Date:

Tuesday, February 18, 2014

  Actual Average Record
Temperature  
Mean Temperature 53 °F 35 °F  
Max Temperature 70 °F 46 °F 78 °F (2016)
Min Temperature 36 °F 25 °F -9 °F (1978)
Degree Days  
Heating Degree Days 12 30  
Month to date heating degree days 749 579  
Since 1 July heating degree days 4010 3689  
Cooling Degree Days 0 0  
Month to date cooling degree days 0 0  
Year to date cooling degree days 0 0  
Growing Degree Days 4 (Base 50)    
Moisture  
Dew Point 27 °F    
Average Humidity 43    
Maximum Humidity 64    
Minimum Humidity 22    
Precipitation  
Precipitation 0.00 in 0.05 in 1.17 in (1911)
Month to date precipitation 0.99 0.80  
Year to date precipitation 1.36 1.66  
Snow  
Snow 0.00 in 0.20 in 8.00 in (1926)
Month to date snowfall 14.8 3.3  
Year to date snowfall 18.7 8.2  
Since 1 July snowfall 23.0 14.7  
Snow Depth T in    
Sea Level Pressure  
Sea Level Pressure 29.83 in    
Wind  
Wind Speed 9 mph (WSW)    
Max Wind Speed 24 mph    
Max Gust Speed 37 mph    
Visibility 10 miles    
Events      
T = Trace of Precipitation, MM = Missing Value Source: NWS Daily Summary

Daily Weather History Graph

Daily Weather History Graph

Search for Another Location

Airport or City:

Trip Planner

Search our weather history database for the weather conditions in past years. The results will help you decide how hot, cold, wet, or windy it might be!

Date:

Astronomy

Feb. 18, 2014 Rise Set
Actual Time 7:10 AM CST 6:03 PM CST
Civil Twilight 6:42 AM CST 6:30 PM CST
Nautical Twilight 6:11 AM CST 7:01 PM CST
Astronomical Twilight 5:40 AM CST 7:32 PM CST
Moon 9:55 PM CST (2/18) 8:44 AM CST (2/18)
Length of Visible Light 11h 47m
Length of Day
10h 53m
Waning Gibbous, 87% of the Moon is Illuminated
Feb 18
Waning Gibbous
Feb 22
Last Quarter
Mar 1
New
Mar 8
First Quarter
Mar 16
Full

Hourly Weather History & Observations

Time (CST) Temp. Windchill Dew Point Humidity Pressure Visibility Wind Dir Wind Speed Gust Speed Precip Events Conditions
12:53 AM 42.1 °F 40.2 °F 25.0 °F 51% 29.96 in 10.0 mi SSE 3.5 mph - N/A   Clear
1:53 AM 37.0 °F - 26.1 °F 65% 29.95 in 10.0 mi Calm Calm - N/A   Clear
2:53 AM 39.9 °F - 25.0 °F 55% 29.92 in 10.0 mi Calm Calm - N/A   Clear
3:53 AM 45.0 °F 40.6 °F 25.0 °F 46% 29.88 in 10.0 mi SSW 8.1 mph - N/A   Clear
4:53 AM 43.0 °F 37.7 °F 26.1 °F 51% 29.85 in 10.0 mi South 9.2 mph - N/A   Clear
5:53 AM 42.1 °F 36.6 °F 26.1 °F 53% 29.83 in 10.0 mi South 9.2 mph - N/A   Clear
6:53 AM 44.1 °F 39.5 °F 26.1 °F 49% 29.81 in 10.0 mi SSW 8.1 mph - N/A   Clear
7:53 AM 43.0 °F 39.5 °F 26.1 °F 51% 29.82 in 10.0 mi SSW 5.8 mph - N/A   Clear
8:53 AM 46.0 °F 41.4 °F 27.0 °F 47% 29.82 in 10.0 mi SSW 9.2 mph - N/A   Clear
9:53 AM 52.0 °F - 27.0 °F 38% 29.80 in 10.0 mi SSW 13.8 mph 27.6 mph N/A   Clear
10:53 AM 55.9 °F - 28.0 °F 34% 29.77 in 10.0 mi SSW 16.1 mph 27.6 mph N/A   Clear
11:53 AM 62.1 °F - 28.0 °F 28% 29.75 in 10.0 mi SW 18.4 mph 27.6 mph N/A   Clear
12:53 PM 64.0 °F - 28.0 °F 26% 29.72 in 10.0 mi SW 16.1 mph 25.3 mph N/A   Clear
1:53 PM 66.9 °F - 28.0 °F 23% 29.72 in 10.0 mi West 16.1 mph 23.0 mph N/A   Clear
2:53 PM 68.0 °F - 28.9 °F 23% 29.71 in 10.0 mi WSW 13.8 mph 20.7 mph N/A   Clear
3:53 PM 69.1 °F - 30.0 °F 23% 29.72 in 10.0 mi West 10.4 mph - N/A   Clear
4:53 PM 68.0 °F - 30.9 °F 25% 29.73 in 10.0 mi West 6.9 mph - N/A   Clear
5:53 PM 66.0 °F - 27.0 °F 23% 29.74 in 10.0 mi WSW 3.5 mph - N/A   Clear
6:53 PM 59.0 °F - 28.9 °F 32% 29.80 in 10.0 mi West 6.9 mph - N/A   Clear
7:53 PM 55.9 °F - 27.0 °F 33% 29.86 in 10.0 mi NW 13.8 mph - N/A   Clear
8:53 PM 53.1 °F - 28.9 °F 40% 29.92 in 10.0 mi NNW 16.1 mph 26.5 mph N/A   Clear
9:53 PM 48.0 °F - 28.9 °F 48% 29.95 in 10.0 mi NNW 6.9 mph - N/A   Clear
10:53 PM 44.1 °F 42.5 °F 28.9 °F 55% 29.97 in 10.0 mi West 3.5 mph - N/A   Clear
11:53 PM 37.0 °F 33.3 °F 27.0 °F 67% 29.99 in 10.0 mi West 4.6 mph - N/A   Clear